QPF
0.00 0.00 0.00 0.00 0.00 0.00 0.00 0.00 0.00 0.00 0.00 0.00 0.00 0.00 0.00 0.00 0.00 0.00 0.00 0.00 0.00 0.00 0.00 0.00 0.00 0.00 0.00 0.00 0.00 0.00 0.00 0.00 0.01 0.00 0.00 0.00 0.00 0.00 0.00 0.00 0.00 0.00 0.00 0.00 0.00 0.00 0.00 0.01 0.00
0.00 0.00 0.00 0.00 0.00 0.00 0.00 0.00 0.00 0.00 0.00 0.00 0.00 0.00 0.00 0.00 0.00 0.00 0.00 0.00 0.00 0.00 0.00 0.00 0.00 0.00 0.00 0.00 0.00 0.00 0.00 0.00 0.00 0.00 0.00 0.00 0.00 0.00 0.00 0.00 0.00 0.00 0.00 0.00 0.00 0.00 0.00 0.02 0.01
0.00 0.00 0.00 0.00 0.00 0.00 0.00 0.00 0.00 0.00 0.00 0.00 0.00 0.00 0.00 0.00 0.00 0.00 0.00 0.00 0.00 0.00 0.00 0.00 0.00 0.00 0.00 0.00 0.00 0.00 0.00 0.00 0.00 0.00 0.00 0.00 0.00 0.00 0.00 0.00 0.00 0.00 0.00 0.00 0.00 0.00 0.00 0.02 0.01
0.00 0.00 0.00 0.00 0.00 0.00 0.00 0.00 0.00 0.00 0.00 0.00 0.00 0.00 0.00 0.00 0.00 0.00 0.00 0.00 0.00 0.00 0.00 0.00 0.00 0.00 0.00 0.00 0.00 0.00 0.00 0.00 0.00 0.00 0.00 0.00 0.00 0.00 0.00 0.00 0.00 0.00 0.00 0.00 0.00 0.00 0.00 0.01 0.01
0.00 0.00 0.00 0.00 0.00 0.00 0.00 0.00 0.00 0.00 0.00 0.00 0.00 0.00 0.00 0.00 0.00 0.00 0.00 0.00 0.00 0.00 0.00 0.00 0.00 0.00 0.00 0.00 0.00 0.00 0.00 0.00 0.00 0.00 0.00 0.00 0.00 0.00 0.00 0.00 0.00 0.00 0.00 0.00 0.00 0.00 0.00 0.00 0.00
0.00 0.00 0.00 0.00 0.00 0.00 0.00 0.00 0.00 0.00 0.00 0.00 0.00 0.00 0.00 0.00 0.00 0.00 0.00 0.00 0.00 0.00 0.00 0.00 0.00 0.00 0.00 0.00 0.00 0.00 0.00 0.00 0.00 0.00 0.00 0.00 0.00 0.00 0.00 0.00 0.00 0.00 0.00 0.00 0.00 0.00 0.00 0.00 0.00
0.00 0.00 0.00 0.00 0.00 0.00 0.00 0.00 0.00 0.00 0.00 0.00 0.00 0.00 0.00 0.00 0.00 0.00 0.00 0.00 0.00 0.00 0.00 0.00 0.00 0.00 0.00 0.00 0.00 0.00 0.00 0.00 0.00 0.00 0.00 0.00 0.00 0.00 0.00 0.00 0.00 0.00 0.00 0.00 0.00 0.00 0.00 0.00 0.00
0.00 0.00 0.00 0.00 0.00 0.00 0.00 0.00 0.00 0.00 0.00 0.00 0.00 0.00 0.00 0.00 0.00 0.00 0.00 0.00 0.00 0.00 0.00 0.00 0.00 0.00 0.00 0.00 0.00 0.00 0.00 0.00 0.00 0.00 0.00 0.00 0.00 0.00 0.00 0.00 0.00 0.00 0.00 0.00 0.00 0.00 0.00 0.00 0.00
0.00 0.00 0.00 0.00 0.00 0.00 0.00 0.00 0.00 0.00 0.00 0.00 0.00 0.00 0.00 0.00 0.00 0.00 0.00 0.00 0.00 0.00 0.00 0.00 0.00 0.00 0.00 0.00 0.00 0.00 0.00 0.00 0.00 0.00 0.00 0.00 0.00 0.00 0.00 0.00 0.00 0.00 0.00 0.00 0.00 0.00 0.00 0.00 0.00
0.00 0.00 0.00 0.00 0.00 0.00 0.00 0.00 0.00 0.00 0.00 0.00 0.00 0.00 0.00 0.00 0.00 0.00 0.00 0.00 0.00 0.00 0.00 0.00 0.00 0.00 0.00 0.00 0.00 0.00 0.00 0.00 0.00 0.00 0.00 0.00 0.00 0.00 0.00 0.00 0.00 0.00 0.00 0.00 0.00 0.00 0.00 0.00 0.00
0.00 0.00 0.00 0.00 0.00 0.00 0.00 0.00 0.00 0.00 0.00 0.00 0.00 0.00 0.00 0.00 0.00 0.00 0.00 0.00 0.00 0.00 0.00 0.00 0.00 0.00 0.00 0.00 0.00 0.00 0.00 0.00 0.00 0.00 0.00 0.00 0.00 0.00 0.00 0.00 0.00 0.00 0.00 0.00 0.00 0.00 0.00 0.00 0.00
0.00 0.00 0.00 0.00 0.00 0.00 0.00 0.00 0.00 0.00 0.00 0.00 0.00 0.00 0.00 0.00 0.00 0.00 0.00 0.00 0.00 0.00 0.00 0.00 0.00 0.00 0.00 0.00 0.00 0.00 0.00 0.00 0.00 0.00 0.00 0.00 0.00 0.00 0.00 0.00 0.00 0.00 0.00 0.00 0.00 0.00 0.00 0.00 0.00
0.00 0.00 0.00 0.00 0.00 0.00 0.00 0.00 0.00 0.00 0.00 0.00 0.00 0.00 0.00 0.00 0.00 0.00 0.00 0.00 0.00 0.00 0.00 0.00 0.00 0.00 0.00 0.00 0.00 0.00 0.00 0.00 0.00 0.00 0.00 0.00 0.00 0.00 0.00 0.00 0.00 0.00 0.00 0.00 0.00 0.00 0.00 0.00 0.00
0.00 0.00 0.00 0.00 0.00 0.00 0.00 0.00 0.00 0.00 0.00 0.00 0.00 0.00 0.00 0.00 0.00 0.00 0.00 0.00 0.00 0.00 0.00 0.00 0.00 0.00 0.00 0.00 0.00 0.00 0.00 0.00 0.00 0.00 0.00 0.00 0.00 0.00 0.00 0.00 0.00 0.00 0.00 0.00 0.00 0.00 0.00 0.00 0.00
0.00 0.00 0.00 0.00 0.00 0.00 0.00 0.00 0.00 0.00 0.00 0.00 0.00 0.00 0.00 0.00 0.00 0.00 0.00 0.00 0.00 0.00 0.00 0.00 0.00 0.00 0.00 0.00 0.00 0.00 0.00 0.00 0.00 0.00 0.00 0.00 0.00 0.00 0.00 0.00 0.00 0.00 0.00 0.00 0.00 0.00 0.00 0.00 0.00
0.00 0.00 0.00 0.00 0.00 0.00 0.00 0.00 0.00 0.00 0.00 0.00 0.00 0.00 0.00 0.00 0.00 0.00 0.00 0.00 0.00 0.00 0.00 0.00 0.00 0.00 0.00 0.00 0.00 0.00 0.00 0.00 0.00 0.00 0.00 0.00 0.00 0.00 0.00 0.00 0.00 0.00 0.00 0.00 0.00 0.00 0.00 0.00 0.00
0.00 0.00 0.00 0.00 0.00 0.00 0.00 0.00 0.00 0.00 0.00 0.00 0.00 0.00 0.00 0.00 0.00 0.00 0.00 0.00 0.00 0.00 0.00 0.00 0.00 0.00 0.00 0.00 0.00 0.00 0.00 0.00 0.00 0.00 0.00 0.00 0.00 0.00 0.00 0.00 0.00 0.00 0.00 0.00 0.00 0.00 0.00 0.00 0.00
0.00 0.00 0.00 0.00 0.00 0.00 0.00 0.00 0.00 0.00 0.00 0.00 0.00 0.00 0.00 0.00 0.00 0.00 0.00 0.00 0.00 0.00 0.00 0.00 0.00 0.00 0.00 0.00 0.00 0.00 0.00 0.00 0.00 0.00 0.00 0.00 0.00 0.00 0.00 0.00 0.00 0.00 0.00 0.00 0.00 0.00 0.00 0.00 0.00
0.00 0.00 0.00 0.00 0.00 0.00 0.00 0.00 0.00 0.00 0.00 0.00 0.00 0.00 0.00 0.00 0.00 0.00 0.00 0.00 0.00 0.00 0.00 0.00 0.00 0.00 0.00 0.00 0.00 0.00 0.00 0.00 0.00 0.00 0.00 0.00 0.00 0.00 0.00 0.00 0.00 0.00 0.00 0.00 0.00 0.00 0.00 0.00 0.00
0.00 0.00 0.00 0.00 0.00 0.00 0.00 0.00 0.00 0.00 0.00 0.00 0.00 0.00 0.00 0.00 0.00 0.00 0.00 0.00 0.00 0.00 0.00 0.00 0.00 0.00 0.00 0.00 0.00 0.00 0.00 0.00 0.00 0.00 0.00 0.00 0.00 0.00 0.00 0.00 0.00 0.00 0.00 0.00 0.00 0.00 0.01 0.00 0.03
0.00 0.00 0.00 0.00 0.00 0.00 0.00 0.00 0.00 0.00 0.00 0.00 0.00 0.00 0.00 0.00 0.00 0.00 0.00 0.00 0.00 0.00 0.00 0.00 0.00 0.00 0.00 0.00 0.00 0.00 0.00 0.00 0.00 0.00 0.00 0.00 0.00 0.00 0.00 0.00 0.00 0.00 0.00 0.01 0.01 0.02 0.02 0.02 0.02
0.00 0.00 0.00 0.00 0.00 0.00 0.00 0.00 0.00 0.00 0.00 0.00 0.00 0.00 0.00 0.00 0.00 0.00 0.00 0.00 0.00 0.00 0.00 0.00 0.00 0.00 0.00 0.00 0.00 0.00 0.00 0.00 0.00 0.00 0.00 0.00 0.00 0.00 0.00 0.00 0.00 0.00 0.01 0.03 0.03 0.04 0.03 0.02 0.01
0.00 0.00 0.00 0.00 0.00 0.00 0.00 0.00 0.00 0.00 0.00 0.00 0.00 0.00 0.00 0.00 0.00 0.00 0.00 0.00 0.00 0.00 0.00 0.00 0.00 0.00 0.00 0.00 0.00 0.00 0.00 0.00 0.00 0.00 0.00 0.00 0.00 0.00 0.00 0.00 0.00 0.01 0.02 0.03 0.03 0.04 0.04 0.04 0.03
0.00 0.00 0.01 0.01 0.01 0.00 0.00 0.00 0.00 0.00 0.00 0.00 0.00 0.00 0.00 0.00 0.00 0.00 0.00 0.00 0.00 0.00 0.00 0.00 0.00 0.00 0.00 0.00 0.00 0.00 0.00 0.00 0.00 0.00 0.00 0.00 0.00 0.00 0.00 0.00 0.00 0.00 0.00 0.01 0.02 0.03 0.03 0.03 0.03
0.00 0.01 0.01 0.01 0.00 0.00 0.00 0.00 0.00 0.00 0.00 0.00 0.00 0.00 0.00 0.00 0.00 0.00 0.00 0.00 0.00 0.00 0.00 0.00 0.00 0.00 0.00 0.00 0.00 0.00 0.00 0.00 0.00 0.00 0.00 0.00 0.00 0.00 0.00 0.00 0.00 0.00 0.00 0.00 0.00 0.01 0.01 0.02 0.02
0.00 0.00 0.00 0.00 0.00 0.00 0.00 0.00 0.00 0.00 0.00 0.00 0.00 0.00 0.00 0.00 0.00 0.00 0.00 0.00 0.00 0.00 0.00 0.00 0.00 0.00 0.00 0.00 0.00 0.00 0.00 0.00 0.00 0.00 0.00 0.00 0.00 0.00 0.00 0.00 0.00 0.00 0.00 0.00 0.00 0.00 0.00 0.00 0.00
0.01 0.01 0.00 0.00 0.00 0.00 0.00 0.00 0.00 0.00 0.00 0.00 0.00 0.00 0.00 0.00 0.00 0.00 0.00 0.00 0.00 0.00 0.00 0.00 0.00 0.00 0.00 0.00 0.00 0.00 0.00 0.00 0.00 0.00 0.00 0.00 0.00 0.00 0.00 0.00 0.00 0.00 0.00 0.00 0.00 0.00 0.00 0.00 0.00
0.00 0.00 0.01 0.01 0.00 0.00 0.00 0.00 0.00 0.00 0.00 0.00 0.00 0.00 0.00 0.00 0.00 0.00 0.00 0.00 0.00 0.00 0.00 0.00 0.00 0.00 0.00 0.00 0.00 0.00 0.00 0.00 0.00 0.00 0.00 0.00 0.00 0.00 0.00 0.00 0.00 0.00 0.00 0.00 0.00 0.00 0.00 0.00 0.00
0.00 0.01 0.01 0.01 0.00 0.00 0.00 0.00 0.00 0.00 0.00 0.00 0.00 0.00 0.00 0.00 0.00 0.00 0.00 0.00 0.00 0.00 0.00 0.00 0.00 0.00 0.00 0.00 0.00 0.00 0.00 0.00 0.00 0.00 0.00 0.00 0.00 0.00 0.00 0.00 0.00 0.00 0.00 0.00 0.00 0.00 0.00 0.00 0.00
0.01 0.00 0.01 0.00 0.00 0.00 0.00 0.00 0.00 0.00 0.00 0.00 0.00 0.00 0.00 0.00 0.00 0.00 0.00 0.00 0.00 0.00 0.00 0.00 0.00 0.00 0.00 0.00 0.00 0.00 0.00 0.00 0.00 0.00 0.00 0.00 0.00 0.00 0.00 0.00 0.00 0.00 0.00 0.00 0.00 0.00 0.00 0.00 0.00
MSLP
1010.42 1009.39 1008.75 1008.82 1009.26 1008.57 1009.50 1010.32 1010.29 1010.64 1011.00 1011.47 1011.59 1011.58 1012.41 1013.01 1013.59 1015.11 1015.31 1015.53 1015.60 1016.38 1017.17 1017.64 1017.90 1018.06 1018.16 1018.47 1018.60 1018.70 1018.74 1018.79 1018.93 1019.03 1019.28 1019.53 1019.70 1019.87 1020.11 1020.27 1020.38 1020.48 1020.62 1020.65 1020.70 1020.80 1020.80 1020.85 1021.02
1010.24 1009.47 1008.82 1008.52 1008.72 1008.90 1010.03 1010.25 1010.88 1011.29 1011.52 1011.53 1011.61 1011.66 1012.22 1013.55 1013.91 1015.00 1015.49 1015.51 1015.55 1016.46 1017.10 1017.67 1018.06 1018.22 1018.31 1018.67 1018.85 1018.88 1018.92 1018.97 1019.12 1019.24 1019.41 1019.53 1019.77 1019.93 1020.15 1020.42 1020.46 1020.62 1020.60 1020.70 1020.87 1021.04 1021.04 1020.96 1021.17
1009.82 1008.96 1009.26 1008.43 1008.80 1009.48 1010.03 1010.47 1011.12 1011.54 1011.58 1011.46 1011.67 1012.03 1012.61 1013.95 1014.20 1014.79 1015.36 1015.50 1015.61 1016.42 1016.98 1017.67 1018.11 1018.32 1018.48 1018.78 1018.97 1019.11 1019.13 1019.17 1019.27 1019.37 1019.52 1019.62 1019.77 1019.97 1020.33 1020.59 1020.76 1020.87 1020.85 1020.88 1021.07 1021.29 1021.30 1021.20 1021.24
1009.36 1008.80 1008.64 1008.86 1009.46 1009.97 1010.11 1010.59 1011.05 1011.40 1011.58 1011.64 1011.70 1012.75 1013.83 1014.44 1014.42 1014.85 1015.50 1015.48 1015.88 1016.73 1017.36 1017.98 1018.27 1018.48 1018.66 1018.84 1018.93 1019.02 1019.21 1019.40 1019.55 1019.53 1019.70 1019.81 1019.90 1020.04 1020.25 1020.37 1020.65 1020.89 1021.06 1021.12 1021.27 1021.57 1021.64 1021.62 1021.57
1008.80 1008.83 1008.71 1009.04 1010.00 1010.35 1010.47 1010.61 1010.75 1011.14 1011.32 1011.68 1011.67 1013.15 1014.11 1014.84 1014.94 1015.24 1015.56 1015.69 1016.05 1017.08 1017.67 1018.15 1018.42 1018.61 1018.78 1018.94 1019.07 1019.18 1019.23 1019.32 1019.43 1019.66 1019.90 1020.10 1020.27 1020.34 1020.40 1020.58 1020.75 1020.96 1021.08 1021.19 1021.33 1021.57 1021.67 1021.71 1021.75
1009.45 1009.02 1009.13 1009.49 1010.28 1010.67 1010.81 1010.79 1010.83 1011.20 1011.49 1011.90 1011.98 1013.00 1014.64 1014.94 1015.07 1015.42 1015.66 1015.73 1015.91 1016.95 1017.62 1018.12 1018.60 1018.79 1018.96 1019.10 1019.17 1019.22 1019.27 1019.36 1019.48 1019.63 1019.83 1019.91 1020.11 1020.39 1020.43 1020.50 1020.72 1020.94 1021.08 1021.30 1021.43 1021.54 1021.64 1021.69 1021.73
1010.32 1010.00 1009.92 1009.74 1010.42 1010.89 1011.10 1011.07 1011.07 1011.27 1011.57 1012.16 1012.15 1013.22 1014.57 1015.04 1015.39 1015.49 1015.69 1015.91 1016.17 1016.80 1017.44 1018.01 1018.43 1018.86 1019.10 1019.24 1019.35 1019.40 1019.41 1019.46 1019.57 1019.67 1019.79 1019.85 1020.08 1020.30 1020.51 1020.61 1020.61 1020.79 1020.96 1021.09 1021.22 1021.39 1021.52 1021.61 1021.71
1011.03 1010.80 1010.49 1010.23 1010.49 1011.17 1011.42 1011.49 1011.71 1011.75 1012.15 1012.34 1012.51 1013.29 1014.72 1015.21 1015.50 1015.64 1015.72 1016.04 1016.52 1017.07 1017.35 1017.74 1018.06 1018.47 1018.84 1019.18 1019.41 1019.56 1019.60 1019.61 1019.65 1019.69 1019.82 1019.88 1020.00 1020.14 1020.31 1020.48 1020.52 1020.58 1020.84 1021.05 1021.15 1021.25 1021.35 1021.44 1021.51
1011.45 1011.40 1010.92 1010.69 1010.82 1011.39 1011.64 1011.73 1012.13 1012.21 1012.29 1012.57 1013.09 1013.75 1014.68 1015.15 1015.45 1015.78 1016.00 1016.32 1016.89 1017.34 1017.62 1017.45 1017.72 1017.94 1018.16 1018.49 1018.87 1019.30 1019.53 1019.63 1019.67 1019.67 1019.76 1019.90 1019.97 1020.06 1020.23 1020.38 1020.39 1020.42 1020.60 1020.81 1020.97 1021.13 1021.24 1021.31 1021.38
1011.94 1011.64 1011.54 1011.45 1011.49 1011.74 1012.02 1012.01 1012.14 1012.37 1012.47 1012.87 1013.67 1014.29 1014.81 1015.14 1015.37 1015.67 1015.96 1016.30 1016.70 1017.24 1017.43 1017.56 1017.43 1017.58 1017.66 1017.82 1018.30 1018.87 1019.06 1019.30 1019.42 1019.44 1019.50 1019.79 1019.75 1019.73 1019.81 1020.00 1020.22 1020.46 1020.60 1020.70 1020.83 1020.99 1021.18 1021.39 1021.36
1012.25 1012.17 1012.01 1012.20 1012.42 1012.46 1012.53 1012.58 1012.49 1012.35 1012.48 1012.63 1013.27 1014.06 1014.55 1014.78 1015.06 1015.27 1015.51 1015.56 1015.85 1016.21 1016.74 1017.14 1017.30 1017.28 1017.34 1017.54 1017.81 1018.19 1018.44 1018.84 1018.92 1019.03 1019.19 1019.33 1019.43 1019.50 1019.61 1019.81 1020.12 1020.38 1020.52 1020.72 1020.77 1020.90 1021.05 1021.14 1021.03
1012.99 1012.54 1012.47 1012.80 1013.04 1013.10 1013.10 1012.97 1012.91 1012.74 1013.11 1012.90 1013.23 1013.71 1014.14 1014.43 1014.51 1014.67 1014.82 1015.09 1015.33 1015.63 1015.96 1016.39 1016.65 1017.07 1017.10 1017.09 1017.19 1017.35 1017.71 1017.94 1018.37 1018.54 1018.67 1018.91 1019.16 1019.28 1019.35 1019.53 1019.71 1019.95 1020.05 1020.30 1020.32 1020.44 1020.47 1020.58 1020.51
1013.27 1013.11 1012.90 1013.22 1013.56 1013.49 1013.52 1013.52 1013.39 1013.04 1013.00 1013.07 1013.44 1013.97 1014.04 1014.02 1014.16 1014.32 1014.44 1014.64 1014.92 1015.22 1015.38 1015.63 1016.02 1016.42 1016.69 1016.89 1016.74 1016.67 1016.85 1017.14 1017.40 1017.81 1018.07 1018.35 1018.71 1018.90 1018.94 1019.09 1019.16 1019.22 1019.33 1019.54 1019.75 1019.78 1019.88 1019.98 1020.02
1013.34 1013.52 1013.38 1013.42 1013.86 1013.81 1014.04 1013.93 1013.71 1013.35 1013.18 1013.26 1013.37 1013.66 1013.80 1013.76 1013.99 1014.20 1014.32 1014.56 1014.67 1014.89 1015.06 1015.04 1015.22 1015.31 1015.72 1016.32 1016.66 1016.66 1016.39 1016.40 1016.69 1016.99 1017.27 1017.66 1018.08 1018.39 1018.49 1018.61 1018.72 1018.79 1018.77 1018.87 1019.07 1019.28 1019.45 1019.59 1019.61
1013.99 1014.39 1013.95 1013.84 1014.07 1014.13 1014.09 1014.31 1013.75 1013.37 1013.18 1013.44 1013.52 1013.52 1013.48 1013.51 1013.71 1014.01 1014.14 1014.11 1014.17 1014.26 1014.20 1014.38 1014.47 1014.44 1015.02 1015.51 1015.84 1016.21 1016.43 1016.25 1016.26 1016.46 1016.67 1016.89 1017.22 1017.72 1017.98 1018.20 1018.33 1018.39 1018.42 1018.47 1018.58 1018.70 1018.81 1019.06 1019.09
1014.77 1014.98 1014.70 1014.10 1014.22 1014.27 1014.69 1013.97 1013.54 1013.15 1013.13 1013.23 1013.40 1013.29 1013.28 1013.26 1013.52 1013.75 1013.71 1013.74 1013.77 1013.69 1013.70 1013.70 1013.97 1014.26 1014.40 1014.60 1014.85 1015.44 1015.86 1016.14 1016.11 1016.01 1016.12 1016.26 1016.50 1016.92 1017.40 1017.85 1017.86 1017.82 1017.94 1018.12 1018.41 1018.70 1018.81 1018.77 1018.70
1015.32 1015.04 1014.86 1014.38 1013.84 1014.16 1014.55 1014.14 1013.62 1013.04 1012.93 1013.18 1013.19 1013.25 1013.12 1013.11 1013.20 1013.37 1013.37 1013.49 1013.47 1013.60 1013.74 1013.93 1013.98 1014.06 1014.20 1014.26 1014.19 1014.44 1014.99 1015.46 1015.54 1015.58 1015.81 1015.98 1016.00 1016.22 1016.69 1016.99 1017.12 1017.28 1017.41 1017.60 1017.93 1018.19 1018.34 1018.45 1018.34
1015.47 1015.46 1015.07 1014.32 1013.92 1014.07 1014.35 1014.15 1014.10 1013.64 1013.39 1013.42 1013.30 1013.32 1013.31 1013.21 1013.25 1013.32 1013.29 1013.41 1013.63 1013.88 1014.09 1014.25 1014.27 1014.23 1014.16 1014.02 1013.94 1014.05 1014.28 1014.42 1014.68 1015.00 1015.23 1015.63 1015.88 1015.87 1016.17 1016.48 1016.74 1016.85 1017.11 1017.21 1017.39 1017.65 1017.84 1017.93 1017.92
1015.73 1015.55 1015.18 1014.47 1014.27 1014.63 1014.83 1014.62 1014.21 1013.86 1013.42 1013.30 1013.36 1013.23 1013.20 1013.18 1013.03 1013.30 1013.56 1013.93 1014.28 1014.68 1014.93 1015.10 1015.10 1014.77 1014.43 1014.16 1013.99 1013.99 1014.03 1014.12 1014.17 1014.37 1014.69 1015.16 1015.62 1015.75 1015.70 1015.88 1016.23 1016.49 1016.79 1016.90 1017.16 1017.33 1017.56 1017.62 1017.65
1016.02 1015.92 1015.66 1015.12 1014.88 1015.31 1015.41 1015.12 1014.55 1014.03 1013.27 1012.91 1012.91 1012.88 1012.95 1013.09 1013.23 1013.41 1014.04 1014.52 1015.14 1015.60 1015.94 1015.85 1015.49 1015.02 1014.64 1014.20 1013.71 1013.50 1013.62 1013.76 1013.86 1014.04 1014.43 1014.88 1015.26 1015.41 1015.52 1015.75 1015.89 1016.18 1016.52 1016.70 1016.87 1017.15 1017.44 1017.42 1017.46
1015.84 1016.06 1016.20 1016.07 1015.76 1015.73 1016.08 1014.92 1014.01 1012.47 1012.02 1012.32 1012.22 1012.48 1012.71 1013.05 1013.60 1014.11 1014.50 1015.20 1015.83 1016.41 1016.59 1016.34 1015.80 1015.27 1014.77 1014.34 1013.64 1013.38 1013.38 1013.63 1013.80 1014.11 1014.36 1014.47 1014.64 1014.98 1015.22 1015.41 1015.63 1015.95 1016.25 1016.47 1016.60 1016.71 1016.98 1017.10 1017.10
1015.73 1016.13 1016.45 1016.65 1016.88 1016.75 1016.51 1014.65 1013.19 1012.25 1011.60 1011.53 1011.76 1012.16 1012.57 1013.10 1013.90 1014.52 1015.15 1016.06 1016.84 1017.13 1017.01 1016.62 1016.31 1016.00 1015.43 1014.84 1014.18 1013.68 1013.81 1014.22 1014.23 1014.20 1014.43 1014.51 1014.78 1015.04 1015.24 1015.29 1015.33 1015.66 1016.00 1016.18 1016.32 1016.43 1016.55 1016.68 1016.67
1015.76 1016.04 1016.40 1016.92 1017.37 1017.69 1017.23 1016.54 1012.87 1011.72 1011.60 1011.57 1011.56 1011.90 1012.47 1013.44 1014.16 1015.18 1015.95 1016.76 1017.33 1017.55 1017.51 1017.08 1016.76 1016.49 1016.03 1015.45 1015.08 1014.77 1014.95 1015.17 1015.45 1015.51 1015.37 1015.78 1016.02 1016.34 1016.37 1016.09 1016.04 1015.98 1015.93 1015.97 1016.04 1016.13 1016.21 1016.22 1016.21
1016.00 1016.79 1017.28 1017.66 1018.20 1017.62 1017.20 1016.72 1012.43 1012.01 1011.19 1011.03 1011.41 1012.17 1013.00 1013.93 1014.76 1015.74 1016.63 1017.18 1017.82 1018.06 1018.02 1017.69 1017.31 1017.14 1016.62 1016.19 1015.93 1015.81 1016.00 1016.12 1016.14 1016.25 1016.36 1016.66 1016.94 1017.13 1017.05 1016.91 1016.71 1016.78 1016.76 1016.76 1016.71 1016.48 1016.34 1016.22 1016.26
1016.15 1017.04 1017.98 1018.72 1018.70 1017.19 1016.10 1016.00 1012.09 1011.26 1010.77 1010.67 1011.23 1012.46 1013.40 1014.28 1015.18 1016.14 1017.01 1017.65 1018.31 1018.48 1018.50 1018.37 1018.07 1017.74 1017.40 1017.05 1016.94 1016.74 1016.72 1016.86 1017.09 1017.34 1017.64 1017.74 1017.94 1018.11 1018.07 1017.77 1017.63 1017.69 1017.64 1017.39 1017.43 1017.25 1017.16 1017.32 1017.24
1015.78 1016.62 1016.91 1017.67 1017.82 1016.93 1016.01 1013.89 1011.69 1010.75 1010.44 1010.78 1011.35 1012.43 1013.55 1014.59 1015.53 1016.51 1017.36 1018.00 1018.37 1018.70 1018.82 1018.89 1018.83 1018.54 1018.19 1018.07 1018.08 1017.99 1017.84 1018.05 1018.35 1018.56 1018.77 1019.01 1019.17 1019.17 1019.12 1018.87 1018.47 1018.32 1018.41 1018.23 1017.99 1018.10 1018.23 1018.11 1018.08
1015.50 1015.95 1016.40 1017.11 1017.37 1017.17 1015.44 1013.04 1011.64 1010.78 1010.67 1011.26 1011.99 1012.97 1013.96 1015.00 1015.96 1016.99 1017.54 1018.06 1018.60 1018.95 1019.16 1019.24 1019.39 1019.45 1019.20 1018.95 1018.95 1019.02 1019.09 1019.22 1019.50 1019.67 1019.68 1019.78 1019.87 1019.74 1019.72 1019.42 1019.37 1019.25 1019.07 1018.88 1018.86 1018.83 1019.17 1018.98 1018.96
1014.82 1015.60 1016.56 1017.12 1017.54 1016.70 1014.47 1013.01 1010.85 1010.56 1010.91 1011.34 1012.14 1012.80 1013.77 1014.90 1015.89 1016.80 1017.44 1018.16 1018.80 1019.20 1019.45 1019.65 1019.82 1020.02 1019.97 1019.81 1019.75 1019.79 1019.77 1019.93 1020.11 1020.36 1020.45 1020.50 1020.46 1020.37 1020.17 1020.13 1020.06 1020.01 1019.74 1019.98 1019.71 1019.89 1019.98 1019.92 1019.84
1014.81 1015.30 1015.63 1016.11 1016.65 1015.44 1013.87 1011.64 1009.84 1009.66 1009.61 1010.50 1011.47 1012.38 1013.33 1014.50 1015.42 1016.38 1017.25 1018.15 1018.85 1019.35 1019.73 1019.95 1020.12 1020.43 1020.48 1020.41 1020.38 1020.32 1020.39 1020.54 1020.73 1020.92 1021.11 1021.04 1021.06 1020.97 1020.91 1020.77 1020.70 1020.57 1020.55 1020.80 1020.75 1020.58 1020.39 1020.62 1020.55
1013.94 1014.11 1014.75 1014.84 1015.25 1015.22 1014.16 1010.86 1009.82 1009.59 1009.80 1010.08 1011.07 1012.06 1012.95 1013.98 1015.06 1016.37 1017.38 1018.24 1018.94 1019.44 1019.80 1020.15 1020.34 1020.45 1020.63 1020.81 1020.93 1020.97 1021.12 1021.26 1021.38 1021.51 1021.52 1021.53 1021.61 1021.45 1021.23 1021.02 1021.06 1021.23 1021.38 1021.19 1021.11 1021.28 1021.21 1021.17 1020.93
Thickness
5778 5787 5793 5780 5744 5755 5731 5731 5750 5741 5737 5747 5750 5745 5731 5731 5721 5701 5734 5735 5735 5728 5721 5717 5715 5714 5712 5709 5707 5707 5707 5707 5707 5708 5707 5705 5704 5702 5701 5700 5698 5696 5695 5694 5692 5691 5690 5689 5687
5777 5784 5784 5769 5739 5726 5721 5746 5733 5737 5743 5752 5751 5749 5740 5721 5737 5729 5728 5736 5735 5728 5722 5718 5715 5713 5712 5709 5707 5707 5706 5706 5706 5706 5705 5705 5704 5702 5700 5698 5697 5695 5695 5693 5691 5689 5689 5688 5686
5779 5787 5758 5753 5739 5722 5721 5741 5737 5741 5748 5749 5744 5750 5742 5726 5737 5735 5737 5737 5735 5729 5724 5719 5715 5713 5711 5708 5706 5705 5706 5706 5705 5704 5704 5703 5703 5702 5699 5697 5695 5694 5693 5693 5691 5688 5687 5687 5685
5771 5771 5767 5734 5724 5737 5739 5742 5744 5740 5746 5752 5751 5729 5736 5739 5739 5740 5738 5737 5735 5728 5723 5718 5715 5713 5711 5710 5708 5707 5705 5703 5703 5703 5702 5701 5701 5699 5697 5696 5694 5693 5691 5690 5688 5685 5684 5683 5682
5773 5760 5738 5732 5726 5738 5745 5750 5752 5741 5745 5744 5752 5726 5726 5735 5741 5740 5737 5737 5733 5726 5720 5717 5714 5713 5711 5709 5708 5707 5707 5705 5704 5702 5700 5698 5697 5697 5696 5694 5692 5690 5689 5687 5685 5683 5681 5680 5678
5741 5754 5726 5717 5722 5736 5741 5750 5751 5743 5744 5744 5743 5732 5723 5738 5737 5736 5737 5737 5734 5727 5720 5717 5713 5711 5710 5708 5707 5707 5706 5706 5705 5703 5701 5699 5697 5694 5693 5693 5690 5688 5687 5685 5684 5682 5680 5678 5677
5730 5727 5719 5727 5720 5725 5733 5749 5742 5741 5740 5734 5748 5725 5727 5730 5735 5737 5736 5735 5732 5727 5721 5716 5714 5710 5709 5707 5706 5706 5705 5704 5703 5702 5701 5700 5698 5695 5692 5691 5690 5688 5686 5685 5683 5681 5679 5677 5675
5730 5726 5723 5728 5718 5713 5733 5739 5742 5737 5729 5748 5747 5726 5716 5728 5734 5734 5735 5732 5729 5725 5721 5718 5716 5713 5710 5707 5705 5703 5703 5702 5702 5702 5700 5699 5698 5696 5693 5691 5690 5688 5685 5682 5680 5679 5677 5675 5673
5734 5706 5706 5718 5720 5717 5731 5728 5737 5742 5734 5738 5740 5733 5731 5733 5734 5730 5728 5726 5722 5720 5718 5719 5717 5715 5713 5710 5707 5704 5702 5701 5700 5700 5699 5697 5696 5694 5692 5690 5688 5686 5684 5681 5678 5676 5675 5673 5671
5709 5702 5705 5719 5721 5720 5725 5726 5729 5726 5727 5727 5726 5731 5731 5730 5729 5725 5723 5721 5719 5716 5717 5717 5718 5716 5715 5713 5711 5706 5704 5702 5700 5699 5698 5695 5694 5693 5692 5689 5686 5683 5681 5679 5676 5673 5671 5668 5667
5707 5695 5706 5713 5717 5717 5719 5719 5728 5724 5721 5729 5723 5724 5728 5729 5728 5727 5725 5726 5723 5723 5720 5718 5716 5716 5715 5714 5712 5709 5706 5703 5701 5699 5697 5695 5693 5691 5690 5687 5683 5680 5678 5675 5672 5670 5668 5665 5664
5687 5703 5708 5704 5708 5709 5707 5718 5715 5721 5717 5732 5731 5731 5730 5728 5729 5728 5727 5727 5725 5725 5723 5721 5718 5715 5715 5714 5714 5713 5709 5706 5702 5699 5697 5694 5691 5689 5687 5685 5683 5679 5676 5674 5673 5670 5667 5665 5663
5682 5690 5701 5698 5699 5702 5707 5703 5705 5715 5725 5729 5728 5724 5724 5728 5729 5731 5730 5730 5728 5724 5724 5724 5722 5718 5714 5713 5713 5713 5712 5709 5706 5701 5697 5694 5690 5688 5686 5684 5682 5680 5677 5674 5672 5670 5667 5665 5662
5687 5685 5688 5693 5691 5696 5692 5694 5701 5711 5719 5719 5722 5719 5722 5726 5726 5726 5726 5724 5723 5723 5724 5727 5726 5724 5720 5713 5710 5710 5711 5711 5707 5704 5700 5695 5690 5687 5685 5683 5681 5678 5676 5674 5671 5667 5663 5660 5658
5674 5664 5675 5680 5684 5682 5692 5679 5690 5709 5714 5710 5713 5715 5721 5724 5725 5720 5721 5722 5725 5726 5729 5729 5728 5726 5723 5719 5713 5707 5706 5707 5706 5703 5699 5696 5691 5686 5683 5681 5678 5675 5672 5670 5667 5664 5661 5658 5655
5651 5654 5642 5671 5675 5678 5676 5668 5695 5707 5706 5705 5709 5714 5717 5722 5720 5720 5721 5722 5725 5729 5731 5730 5727 5725 5723 5721 5718 5712 5704 5701 5701 5699 5697 5694 5690 5686 5680 5676 5675 5673 5669 5665 5661 5657 5653 5651 5649
5636 5629 5637 5651 5675 5671 5666 5668 5690 5703 5705 5701 5705 5709 5713 5717 5720 5719 5720 5721 5725 5727 5725 5722 5721 5720 5718 5718 5715 5713 5709 5702 5697 5696 5691 5688 5687 5683 5678 5674 5671 5667 5665 5661 5657 5653 5648 5644 5643
5622 5626 5639 5644 5665 5666 5660 5663 5677 5687 5693 5694 5698 5701 5705 5709 5711 5713 5716 5717 5722 5718 5714 5715 5714 5713 5713 5712 5713 5710 5706 5704 5700 5695 5689 5683 5678 5677 5674 5668 5664 5661 5658 5656 5652 5647 5643 5639 5637
5625 5624 5627 5646 5658 5647 5646 5652 5669 5677 5683 5685 5691 5694 5699 5703 5710 5709 5706 5708 5708 5703 5702 5700 5700 5701 5702 5703 5703 5703 5699 5696 5695 5692 5687 5681 5674 5669 5667 5664 5658 5654 5651 5648 5644 5640 5635 5632 5628
5613 5611 5613 5633 5643 5635 5636 5639 5657 5666 5678 5686 5686 5689 5694 5696 5698 5701 5697 5697 5690 5688 5685 5685 5687 5690 5692 5694 5697 5699 5696 5692 5689 5684 5680 5675 5669 5664 5660 5655 5652 5647 5642 5639 5635 5629 5624 5622 5618
5605 5602 5603 5610 5626 5627 5622 5630 5650 5675 5679 5681 5688 5691 5692 5690 5688 5687 5687 5683 5678 5673 5672 5674 5676 5679 5682 5684 5689 5689 5688 5684 5680 5675 5671 5668 5663 5657 5652 5648 5644 5638 5632 5628 5624 5621 5616 5612 5610
5589 5603 5602 5601 5597 5589 5615 5600 5647 5664 5677 5678 5682 5684 5683 5683 5678 5678 5674 5667 5661 5658 5658 5660 5662 5662 5666 5670 5674 5678 5673 5666 5665 5664 5659 5657 5650 5645 5641 5637 5633 5628 5622 5619 5615 5611 5607 5604 5601
5589 5597 5596 5591 5583 5580 5591 5582 5635 5655 5656 5667 5676 5678 5678 5669 5669 5662 5657 5652 5646 5643 5642 5644 5646 5647 5650 5654 5655 5655 5651 5648 5643 5640 5639 5634 5630 5624 5620 5619 5615 5612 5610 5607 5604 5601 5598 5594 5591
5584 5577 5576 5576 5567 5560 5585 5581 5619 5640 5654 5664 5670 5665 5663 5659 5654 5647 5641 5637 5629 5626 5625 5627 5630 5630 5634 5636 5637 5635 5631 5628 5625 5622 5618 5614 5609 5603 5600 5597 5595 5591 5589 5587 5586 5586 5584 5582 5579
5571 5561 5542 5530 5531 5550 5594 5579 5624 5643 5655 5663 5665 5655 5649 5645 5640 5634 5626 5618 5614 5611 5609 5611 5612 5613 5615 5617 5616 5616 5614 5610 5605 5601 5595 5591 5586 5581 5577 5575 5573 5570 5568 5568 5565 5565 5564 5559 5557
5562 5558 5544 5538 5540 5556 5578 5574 5609 5642 5650 5651 5649 5643 5636 5632 5626 5617 5609 5603 5600 5596 5594 5592 5592 5593 5596 5595 5594 5592 5591 5586 5581 5576 5571 5565 5560 5556 5553 5552 5552 5551 5549 5547 5548 5546 5543 5540 5536
5552 5544 5565 5543 5535 5531 5561 5596 5611 5631 5632 5628 5627 5624 5619 5615 5606 5597 5593 5588 5583 5579 5577 5576 5575 5573 5574 5574 5572 5569 5566 5562 5556 5551 5548 5543 5538 5536 5534 5534 5533 5531 5531 5530 5529 5528 5521 5520 5517
5550 5554 5533 5525 5525 5512 5553 5571 5597 5613 5613 5613 5611 5611 5610 5602 5593 5585 5577 5570 5564 5561 5560 5560 5558 5554 5553 5553 5552 5549 5547 5542 5537 5531 5527 5523 5520 5518 5517 5516 5515 5513 5514 5510 5509 5506 5502 5500 5497
5539 5532 5537 5539 5529 5537 5551 5568 5619 5620 5614 5609 5606 5604 5601 5589 5580 5574 5565 5554 5548 5545 5543 5541 5539 5536 5535 5535 5532 5530 5526 5521 5516 5512 5508 5505 5503 5501 5499 5499 5497 5497 5495 5491 5488 5487 5486 5482 5480
5536 5536 5534 5529 5527 5525 5535 5559 5611 5606 5604 5601 5597 5594 5589 5577 5568 5558 5548 5539 5532 5528 5525 5523 5521 5519 5517 5514 5511 5508 5504 5500 5498 5495 5492 5490 5487 5486 5486 5486 5484 5481 5476 5475 5474 5470 5467 5465 5464